Tuscaloosa, AL

6:28 AM CDT on September 20, 2017 (GMT -0500)
Tuscaloosa Municipal

Weather History for KTCL - November, 2012

Change the Weather History Date:

Monday, November 26, 2012

  Actual Average Record
Temperature  
Mean Temperature 50 °F 52 °F  
Max Temperature 68 °F 63 °F 82 °F (1973)
Min Temperature 32 °F 40 °F 19 °F (1950)
Degree Days  
Heating Degree Days 15 14  
Month to date heating degree days 320 261  
Since 1 July heating degree days 433 378  
Moisture  
Dew Point 44 °F    
Average Humidity 72    
Maximum Humidity 89    
Minimum Humidity 55    
Precipitation  
Precipitation T in 0.19 in 1.69 in (1988)
Month to date precipitation 0.84 4.23  
Year to date precipitation 40.17 47.13  
Sea Level Pressure  
Sea Level Pressure 30.14 in    
Wind  
Wind Speed 3 mph (South)    
Max Wind Speed 10 mph    
Max Gust Speed 14 mph    
Visibility 10 miles    
Events Rain    
T = Trace of Precipitation, MM = Missing Value Source: NWS Daily Summary

Daily Weather History Graph

Daily Weather History Graph

Search for Another Location

Airport or City:

Trip Planner

Search our weather history database for the weather conditions in past years. The results will help you decide how hot, cold, wet, or windy it might be!

Date:

Astronomy

Nov. 26, 2012 Rise Set
Actual Time 6:31 AM CST 4:43 PM CST
Civil Twilight 6:05 AM CST 5:10 PM CST
Nautical Twilight 5:34 AM CST 5:41 PM CST
Astronomical Twilight 5:04 AM CST 6:10 PM CST
Moon 3:33 PM CST (11/26) 4:45 AM CST (11/26)
Length of Visible Light 11h 05m
Length of Day
10h 11m
Waxing Gibbous, 97% of the Moon is Illuminated
Nov 26
Waxing Gibbous
Nov 28
Full
Dec 6
Last Quarter
Dec 13
New
Dec 19
First Quarter

Hourly Weather History & Observations

Time (CST) Temp. Windchill Dew Point Humidity Pressure Visibility Wind Dir Wind Speed Gust Speed Precip Events Conditions
12:53 AM 34.0 °F - 30.9 °F 89% 30.13 in 10.0 mi Calm Calm - N/A   Clear
1:53 AM 34.0 °F 31.0 °F 30.9 °F 89% 30.13 in 9.0 mi NNE 3.5 mph - N/A   Clear
2:53 AM 33.1 °F - 30.0 °F 89% 30.15 in 10.0 mi Calm Calm - N/A   Clear
3:53 AM 33.1 °F - 28.9 °F 85% 30.16 in 10.0 mi Calm Calm - N/A   Clear
4:53 AM 33.1 °F - 30.0 °F 89% 30.17 in 10.0 mi Calm Calm - N/A   Clear
5:53 AM 33.1 °F - 28.9 °F 85% 30.18 in 10.0 mi Calm Calm - N/A   Clear
6:53 AM 33.1 °F - 30.0 °F 89% 30.19 in 9.0 mi Calm Calm - N/A   Clear
7:53 AM 39.0 °F - 35.1 °F 86% 30.20 in 9.0 mi Calm Calm - N/A   Mostly Cloudy
8:53 AM 48.9 °F - 39.9 °F 71% 30.20 in 10.0 mi Calm Calm - N/A   Clear
9:53 AM 57.9 °F - 43.0 °F 58% 30.21 in 10.0 mi South 5.8 mph - N/A   Clear
10:53 AM 60.1 °F - 45.0 °F 57% 30.19 in 10.0 mi SW 4.6 mph - N/A   Overcast
11:53 AM 63.0 °F - 46.9 °F 56% 30.15 in 10.0 mi South 4.6 mph - N/A   Mostly Cloudy
12:53 PM 66.0 °F - 50.0 °F 56% 30.13 in 10.0 mi South 4.6 mph - N/A   Scattered Clouds
1:53 PM 66.9 °F - 51.1 °F 57% 30.10 in 10.0 mi SSW 8.1 mph - N/A   Overcast
2:53 PM 66.0 °F - 51.1 °F 59% 30.11 in 10.0 mi South 6.9 mph - 0.00 in Rain Light Rain
3:53 PM 66.0 °F - 51.1 °F 59% 30.10 in 10.0 mi South 8.1 mph - 0.00 in   Overcast
4:53 PM 64.0 °F - 51.1 °F 63% 30.11 in 10.0 mi South 5.8 mph - N/A   Overcast
5:53 PM 64.0 °F - 51.1 °F 63% 30.11 in 10.0 mi South 3.5 mph - N/A   Overcast
6:53 PM 63.0 °F - 51.1 °F 65% 30.11 in 10.0 mi SE 3.5 mph - N/A   Scattered Clouds
7:53 PM 62.1 °F - 52.0 °F 70% 30.12 in 10.0 mi Calm Calm - N/A   Overcast
8:53 PM 62.1 °F - 52.0 °F 70% 30.12 in 10.0 mi South 5.8 mph - N/A   Overcast
9:22 PM 60.8 °F - 51.8 °F 72% 30.12 in 10.0 mi Calm Calm - N/A   Overcast
9:53 PM 61.0 °F - 52.0 °F 72% 30.12 in 10.0 mi South 3.5 mph - N/A   Overcast
10:53 PM 61.0 °F - 54.0 °F 78% 30.12 in 10.0 mi South 3.5 mph - N/A   Overcast
11:02 PM 60.8 °F - 53.6 °F 77% 30.12 in 10.0 mi South 4.6 mph - N/A   Overcast
11:53 PM 61.0 °F - 55.0 °F 81% 30.10 in 10.0 mi South 6.9 mph - N/A   Overcast